sat.trackr.live / text

‹ back to catalog

ONEWEB-0499

NORAD 54117 · 2022-138E

PAYLOAD ACTIVE UNKNOWN

§ Identity

Operator
Country
UK
Launch date
2022-10-22
Launch site
SRILR
Launch vehicle
Mass (kg)
RCS (m²)

Purposes: comms

External: N2YO · Heavens-Above · Gunter

§ Orbital elements

Epoch: 2026-09-19T19:53:41.935776Z

Period
109.11 min
Inclination
87.9109°
Eccentricity
0.0002010
Mean motion
13.19723136 rev/d
Perigee alt
1,184.3 km
Apogee alt
1,187.3 km
Semi-major
7,563.9 km
B*
-1.2454e-4
RAAN
286.1136°
Arg perigee
87.0204°
Mean anomaly
273.1158°
Rev number
18,930

§ Raw data

ONEWEB-04991 54117U 22138E   26262.82895759 -.00000037  00000+0 -12454-3 0  99952 54117  87.9109 286.1136 0002010  87.0204 273.1158 13.19723136189309

JSON: /api/v1/satellites/54117 · /tle

For live sub-satellite position, see the globe view (requires WebGL).

§ Visibility from observer

Set your observer location to see the next 7 days of passes ≥ 10°. The values pass through the URL so the page stays shareable.

No JS? Fill the form by hand. The geolocation button needs JavaScript.